Weather History for EGWU - June, 2013

Change the Weather History Date:

Saturday, June 15, 2013

  Actual Average Record
Temperature  
Mean Temperature 56 °F -  
Max Temperature 62 °F 69 °F 78 °F (2003)
Min Temperature 50 °F 54 °F 50 °F (2008)
Degree Days  
Heating Degree Days 9    
Growing Degree Days 6 (Base 50)    
Moisture  
Dew Point 47 °F    
Average Humidity 71    
Maximum Humidity 88    
Minimum Humidity 38    
Precipitation  
Precipitation 0.00 in - - ()
Sea Level Pressure  
Sea Level Pressure 29.77 in    
Wind  
Wind Speed 13 mph ()    
Max Wind Speed 24 mph    
Max Gust Speed 34 mph    
Visibility 6.9 miles    
Events Rain    
Averages and records for this station are not official NWS values.
T = Trace of Precipitation, MM = Missing Value Source: Averaged Metar Reports

Daily Weather History Graph

Daily Weather History Graph

Search for Another Location

Airport or City:

Trip Planner

Search our weather history database for the weather conditions in past years. The results will help you decide how hot, cold, wet, or windy it might be!

Date:

Astronomy

Jun. 15, 2013 Rise Set
Actual Time 4:43 AM BST 9:20 PM BST
Civil Twilight 3:56 AM BST 10:08 PM BST
Nautical Twilight 2:41 AM BST 11:22 PM BST
Astronomical Twilight 1:34 AM BST 12:29 AM BST
Moon 11:45 AM BST (6/15) 12:10 AM BST (6/15)
Length of Visible Light 18h 12m
Length of Day
16h 37m
Waxing Crescent, 37% of the Moon is Illuminated
Jun 15
Waxing Crescent
Jun 16
First Quarter
Jun 23
Full
Jun 30
Last Quarter
Jul 8
New

Hourly Weather History & Observations

Time (BST) Temp. Dew Point Humidity Pressure Visibility Wind Dir Wind Speed Gust Speed Precip Events Conditions
12:50 AM 58 °F 47 °F 58% 29.77 in 22 mi South 11.5 mph - -   Overcast
12:50 AM 57.2 °F 48.2 °F 72% 29.77 in 6.2 mi South 11.5 mph - N/A   Overcast
1:50 AM 57.2 °F 48.2 °F 72% 29.71 in 6.2 mi SSW 13.8 mph - N/A   Overcast
2:50 AM 55.4 °F 51.8 °F 88% 29.71 in 6.2 mi SSW 12.7 mph - N/A   Scattered Clouds
3:50 AM 54 °F 51 °F 84% 29.70 in 25 mi SW 10.4 mph - -   Scattered Clouds
3:50 AM 53.6 °F 50.0 °F 88% 29.68 in 6.2 mi SW 10.4 mph - N/A   Mostly Cloudy
4:50 AM 51.8 °F 48.2 °F 88% 29.71 in 6.2 mi WSW 10.4 mph - N/A   Unknown
5:50 AM 50.0 °F 46.4 °F 87% 29.71 in 6.2 mi WSW 10.4 mph - N/A   Unknown
6:50 AM 52 °F 47 °F 76% 29.75 in 19 mi SW 12.7 mph - -   Scattered Clouds
6:50 AM 51.8 °F 46.4 °F 82% 29.74 in 6.2 mi SW 12.7 mph - N/A   Partly Cloudy
7:50 AM 53.6 °F 46.4 °F 77% 29.74 in 6.2 mi WSW 15.0 mph - N/A   Scattered Clouds
8:50 AM 57.2 °F 42.8 °F 59% 29.74 in 6.2 mi WSW 21.9 mph 33.4 mph N/A   Scattered Clouds
9:50 AM 58 °F 44 °F 48% 29.77 in 25 mi West 21.9 mph - -   Mostly Cloudy
9:50 AM 57.2 °F 44.6 °F 63% 29.77 in 6.2 mi West 21.9 mph - N/A   Scattered Clouds
10:50 AM 59.0 °F 39.2 °F 48% 29.77 in 6.2 mi WSW 19.6 mph - N/A   Scattered Clouds
11:50 AM 59.0 °F 39.2 °F 48% 29.77 in 6.2 mi West 18.4 mph - N/A   Scattered Clouds
12:50 PM 62 °F 43 °F 38% 29.79 in 25 mi North 24.2 mph - -   Mostly Cloudy
12:50 PM 60.8 °F 42.8 °F 52% 29.77 in 6.2 mi North 24.2 mph - N/A   Scattered Clouds
1:50 PM 57.2 °F 46.4 °F 67% 29.77 in 6.2 mi SW 19.6 mph - N/A Rain Light Rain Showers
2:50 PM 57.2 °F 48.2 °F 72% 29.77 in 6.2 mi SW 24.2 mph - N/A Rain Light Rain Showers
3:15 PM 57.2 °F 48.2 °F 72% 29.77 in 6.2 mi SW 19.6 mph 33.4 mph N/A Rain Rain Showers
3:31 PM 57.2 °F 50.0 °F 77% 29.77 in 2.5 mi WSW 18.4 mph - N/A Rain Rain Showers
3:33 PM 55.4 °F 50.0 °F 82% 29.77 in 1.4 mi WSW 17.3 mph 32.2 mph N/A Rain Heavy Rain Showers
3:38 PM 51.8 °F 48.2 °F 88% 29.77 in 6.2 mi West 17.3 mph 34.5 mph N/A Rain Light Rain Showers
3:50 PM 53 °F 50 °F 87% 29.79 in 12 mi West 13.8 mph - - Rain Light Rain Showers
3:50 PM 53.6 °F 50.0 °F 88% 29.77 in 6.2 mi West 13.8 mph - N/A   Scattered Clouds
4:50 PM 59.0 °F 51.8 °F 77% 29.77 in 6.2 mi WSW 12.7 mph - N/A   Scattered Clouds
5:50 PM 60.8 °F 50.0 °F 68% 29.77 in 6.2 mi WSW 13.8 mph - N/A   Scattered Clouds
6:50 PM 60.8 °F 46.4 °F 59% 29.80 in 6.2 mi WSW 18.4 mph - N/A   Mostly Cloudy
7:50 PM 59.0 °F 46.4 °F 63% 29.83 in 6.2 mi WSW 15.0 mph - N/A   Mostly Cloudy
8:50 PM 57.2 °F 46.4 °F 67% 29.83 in 6.2 mi WSW 10.4 mph - N/A   Mostly Cloudy
9:50 PM 57 °F 47 °F 61% 29.86 in 19 mi WSW 11.5 mph - -   Scattered Clouds
9:50 PM 57.2 °F 48.2 °F 72% 29.83 in 6.2 mi WSW 11.5 mph - N/A   Mostly Cloudy
10:50 PM 57.2 °F 46.4 °F 67% 29.86 in 6.2 mi WSW 12.7 mph - N/A   Overcast
11:50 PM 53.6 °F 48.2 °F 82% 29.89 in 6.2 mi SW 12.7 mph - N/A   Mostly Cloudy